VHASH YORG-YSHL

Flight info

Callsign VHASH
Flight time 0h 28m
Altitude 21000
Route KADOM A576 TESAT/N0299F200 H65 WOL
Aircraft TBM9/L-SDFGRWY/S

Departure

Time 2026-04-28 01:28
Airport Orange Airport (YORG)

Arrival

Time 2026-04-28 01:56
Airport Shellharbour Airport (YSHL)
Time Latitude Longitude Altitude Speed Heading
2026-04-28 01:15 -33.38133 149.12484 3122 ft 0 kts 258°
2026-04-28 01:23 -33.38125 149.12467 3121 ft 6 kts 349°
2026-04-28 01:23 -33.38078 149.12459 3118 ft 9 kts 314°
2026-04-28 01:24 -33.38030 149.12383 3120 ft 15 kts 305°
2026-04-28 01:24 -33.37967 149.12289 3121 ft 14 kts 332°
2026-04-28 01:24 -33.37872 149.12284 3121 ft 11 kts
2026-04-28 01:24 -33.37842 149.12286 3121 ft 0 kts
2026-04-28 01:26 -33.37824 149.12294 3121 ft 10 kts 39°
2026-04-28 01:26 -33.37778 149.12405 3118 ft 13 kts 85°
2026-04-28 01:27 -33.37869 149.12575 3117 ft 51 kts 126°
2026-04-28 01:27 -33.38195 149.13128 3137 ft 108 kts 125°
2026-04-28 01:27 -33.38693 149.13961 3407 ft 135 kts 126°
2026-04-28 01:27 -33.39366 149.14910 3531 ft 172 kts 131°
2026-04-28 01:28 -33.40252 149.15920 3973 ft 182 kts 136°
2026-04-28 01:28 -33.41230 149.16973 4321 ft 193 kts 137°
2026-04-28 01:28 -33.42279 149.18058 4503 ft 205 kts 132°
2026-04-28 01:28 -33.43112 149.19350 5170 ft 189 kts 125°
2026-04-28 01:29 -33.43871 149.20615 5691 ft 187 kts 123°
2026-04-28 01:29 -33.44303 149.22051 6152 ft 186 kts 102°
2026-04-28 01:29 -33.44576 149.23588 6655 ft 187 kts 102°
2026-04-28 01:29 -33.44902 149.25073 7113 ft 187 kts 106°
2026-04-28 01:30 -33.45280 149.26556 7599 ft 186 kts 107°
2026-04-28 01:30 -33.45665 149.28055 7961 ft 193 kts 107°
2026-04-28 01:30 -33.46062 149.29617 8374 ft 196 kts 107°
2026-04-28 01:30 -33.46460 149.31182 8878 ft 197 kts 107°
2026-04-28 01:31 -33.46859 149.32756 9426 ft 198 kts 107°
2026-04-28 01:31 -33.47259 149.34331 9992 ft 198 kts 107°
2026-04-28 01:31 -33.47662 149.35920 10515 ft 200 kts 107°
2026-04-28 01:31 -33.48067 149.37520 11008 ft 202 kts 107°
2026-04-28 01:32 -33.48476 149.39137 11492 ft 204 kts 107°
2026-04-28 01:32 -33.48889 149.40769 11992 ft 206 kts 107°
2026-04-28 01:32 -33.49307 149.42419 12498 ft 208 kts 107°
2026-04-28 01:32 -33.49728 149.44085 13012 ft 209 kts 108°
2026-04-28 01:33 -33.50150 149.45740 13523 ft 211 kts 110°
2026-04-28 01:33 -33.50966 149.47182 14019 ft 211 kts 137°
2026-04-28 01:33 -33.52070 149.48357 14478 ft 213 kts 140°
2026-04-28 01:33 -33.53171 149.49555 14934 ft 215 kts 136°
2026-04-28 01:34 -33.54224 149.50841 15415 ft 217 kts 134°
2026-04-28 01:34 -33.55269 149.52153 15887 ft 218 kts 134°
2026-04-28 01:34 -33.56331 149.53468 16361 ft 220 kts 135°
2026-04-28 01:34 -33.57404 149.54787 16835 ft 222 kts 135°
2026-04-28 01:35 -33.58486 149.56123 17308 ft 224 kts 135°
2026-04-28 01:35 -33.59576 149.57471 17783 ft 226 kts 135°
2026-04-28 01:35 -33.60677 149.58833 18253 ft 228 kts 135°
2026-04-28 01:35 -33.61790 149.60208 18722 ft 230 kts 135°
2026-04-28 01:36 -33.62904 149.61585 19163 ft 230 kts 135°
2026-04-28 01:36 -33.64016 149.62962 19611 ft 230 kts 135°
2026-04-28 01:36 -33.65133 149.64344 20071 ft 230 kts 135°
2026-04-28 01:36 -33.66245 149.65722 20524 ft 230 kts 136°
2026-04-28 01:37 -33.67361 149.67103 20960 ft 231 kts 135°
2026-04-28 01:37 -33.68468 149.68476 21335 ft 235 kts 136°
2026-04-28 01:37 -33.69664 149.69957 21352 ft 252 kts 136°
2026-04-28 01:37 -33.70917 149.71511 21361 ft 266 kts 135°
2026-04-28 01:38 -33.72208 149.73114 21364 ft 275 kts 135°
2026-04-28 01:38 -33.73558 149.74790 21362 ft 282 kts 135°
2026-04-28 01:38 -33.74937 149.76503 21360 ft 287 kts 135°
2026-04-28 01:38 -33.76333 149.78239 21360 ft 291 kts 135°
2026-04-28 01:39 -33.77745 149.79996 21361 ft 293 kts 135°
2026-04-28 01:39 -33.79169 149.81768 21361 ft 295 kts 135°
2026-04-28 01:39 -33.80596 149.83542 21362 ft 296 kts 135°
2026-04-28 01:39 -33.81544 149.84722 21358 ft 297 kts 135°
2026-04-28 01:40 -33.83464 149.87115 21359 ft 297 kts 135°
2026-04-28 01:40 -33.84899 149.88904 21362 ft 298 kts 135°
2026-04-28 01:40 -33.86340 149.90701 21360 ft 298 kts 135°
2026-04-28 01:40 -33.87787 149.92506 21201 ft 303 kts 135°
2026-04-28 01:41 -33.89277 149.94366 20830 ft 312 kts 135°
2026-04-28 01:41 -33.90804 149.96274 20409 ft 319 kts 135°
2026-04-28 01:41 -33.92357 149.98216 19984 ft 324 kts 135°
2026-04-28 01:41 -33.93927 150.00183 19560 ft 327 kts 135°
2026-04-28 01:42 -33.95495 150.02141 19128 ft 329 kts 135°
2026-04-28 01:42 -33.97096 150.04145 18432 ft 337 kts 134°
2026-04-28 01:42 -33.98723 150.06184 17870 ft 336 kts 135°
2026-04-28 01:42 -34.00336 150.08204 17426 ft 332 kts 134°
2026-04-28 01:43 -34.01927 150.10204 16993 ft 329 kts 134°
2026-04-28 01:43 -34.03513 150.12196 16554 ft 327 kts 134°
2026-04-28 01:43 -34.05085 150.14164 16128 ft 325 kts 134°
2026-04-28 01:43 -34.06650 150.16127 15701 ft 323 kts 134°
2026-04-28 01:44 -34.08196 150.18076 15276 ft 321 kts 134°
2026-04-28 01:44 -34.09725 150.20004 14838 ft 320 kts 134°
2026-04-28 01:44 -34.11261 150.21933 14431 ft 318 kts 135°
2026-04-28 01:44 -34.12293 150.23230 14143 ft 316 kts 135°
2026-04-28 01:45 -34.14285 150.25740 13569 ft 309 kts 134°
2026-04-28 01:45 -34.15763 150.27607 13160 ft 306 kts 134°
2026-04-28 01:45 -34.16758 150.28859 12885 ft 304 kts 134°
2026-04-28 01:45 -34.18215 150.30694 12493 ft 302 kts 134°
2026-04-28 01:46 -34.19646 150.32505 12094 ft 301 kts 134°
2026-04-28 01:46 -34.21089 150.34329 11699 ft 299 kts 134°
2026-04-28 01:46 -34.22529 150.36150 11299 ft 298 kts 134°
2026-04-28 01:46 -34.23959 150.37955 10905 ft 297 kts 134°
2026-04-28 01:47 -34.25383 150.39756 10520 ft 296 kts 134°
2026-04-28 01:47 -34.26803 150.41553 10119 ft 295 kts 134°
2026-04-28 01:47 -34.28217 150.43346 9713 ft 293 kts 134°
2026-04-28 01:47 -34.29625 150.45130 9325 ft 291 kts 134°
2026-04-28 01:48 -34.31021 150.46900 8943 ft 290 kts 134°
2026-04-28 01:48 -34.32347 150.48580 8577 ft 290 kts 134°
2026-04-28 01:48 -34.33718 150.50321 8196 ft 289 kts 134°
2026-04-28 01:48 -34.35105 150.52082 7818 ft 288 kts 134°
2026-04-28 01:49 -34.36485 150.53836 7446 ft 287 kts 134°
2026-04-28 01:49 -34.37865 150.55590 7058 ft 287 kts 134°
2026-04-28 01:49 -34.39240 150.57338 6673 ft 286 kts 134°
2026-04-28 01:49 -34.40610 150.59080 6284 ft 285 kts 133°
2026-04-28 01:50 -34.41967 150.60806 5909 ft 281 kts 133°
2026-04-28 01:50 -34.43305 150.62509 5546 ft 277 kts 131°
2026-04-28 01:50 -34.44622 150.64179 5174 ft 272 kts 131°
2026-04-28 01:50 -34.45903 150.65825 4813 ft 264 kts 130°
2026-04-28 01:51 -34.47147 150.67421 4465 ft 258 kts 131°
2026-04-28 01:51 -34.48378 150.68988 4144 ft 255 kts 131°
2026-04-28 01:51 -34.49587 150.70522 3791 ft 245 kts 132°
2026-04-28 01:51 -34.50752 150.71977 3334 ft 237 kts 133°
2026-04-28 01:52 -34.51905 150.73370 2905 ft 229 kts 130°
2026-04-28 01:52 -34.52611 150.75032 2427 ft 220 kts 101°
2026-04-28 01:52 -34.52807 150.76769 2002 ft 194 kts 93°
2026-04-28 01:52 -34.52935 150.78256 1984 ft 171 kts 93°
2026-04-28 01:53 -34.53059 150.79662 1648 ft 165 kts 92°
2026-04-28 01:53 -34.53397 150.80964 1131 ft 158 kts 126°
2026-04-28 01:53 -34.54270 150.81510 987 ft 133 kts 172°
2026-04-28 01:53 -34.55204 150.81605 993 ft 136 kts 173°
2026-04-28 01:54 -34.56110 150.81715 987 ft 125 kts 173°
2026-04-28 01:54 -34.56919 150.81716 1004 ft 104 kts 198°
2026-04-28 01:54 -34.57474 150.81186 906 ft 109 kts 231°
2026-04-28 01:54 -34.57817 150.80402 665 ft 103 kts 257°
2026-04-28 01:55 -34.57855 150.79585 492 ft 92 kts 292°
2026-04-28 01:55 -34.57400 150.78998 292 ft 101 kts 342°
2026-04-28 01:55 -34.56764 150.78896 78 ft 84 kts 352°
2026-04-28 01:55 -34.56263 150.78787 38 ft 61 kts 350°
2026-04-28 01:56 -34.55983 150.78726 35 ft 34 kts 349°
2026-04-28 01:56 -34.55864 150.78711 35 ft 8 kts 53°
2026-04-28 01:56 -34.55854 150.78771 35 ft 7 kts 83°
2026-04-28 01:56 -34.55847 150.78830 35 ft 7 kts 79°
2026-04-28 01:57 -34.55839 150.78885 36 ft 6 kts 80°
2026-04-28 01:57 -34.55832 150.78944 36 ft 8 kts 82°
2026-04-28 01:57 -34.55837 150.78974 36 ft 4 kts 161°
2026-04-28 01:57 -34.55857 150.78971 36 ft 2 kts 247°
2026-04-28 01:58 -34.55857 150.78968 37 ft 0 kts 263°